{"data":{"norad_id":60037,"epoch":"2026-05-25T02:08:05.071776Z","epoch_age_seconds":63977,"freshness":"FRESH","line1":"1 60037U 24111X   26145.08894759  .00000720  00000+0  36440-4 0  9992","line2":"2 60037  53.1612  80.5365 0001288  86.4878 273.6270 15.30194004110661","mean_motion":15.30194004,"eccentricity":0.0001288,"inclination_deg":53.1612,"raan_deg":80.5365,"arg_perigee_deg":86.4878,"mean_anomaly_deg":273.627,"bstar":3.644e-5,"rev_number":11066,"period_min":94.105714454231,"perigee_km":474.35025840055,"apogee_km":476.11568650545,"semimajor_km":6853.369972453,"source":"CELESTRAK","updated_at":"2026-05-25T13:38:19.151621Z"}}